Terminal Aerodrome Forecast
Issued by NWS

Home | Current Version | Previous Version | Text Only | Print | Product List | Glossary On
Versions: 1 2 3 4 5 6 7 8 9 10 11 12 13 14 15 16 17 18 19 20
000
FTUS44 KMAF 290520
TAFCNM
TAF
KCNM 290520Z 2906/3006 12005KT P6SM VCTS BKN090CB
      TEMPO 2906/2910 VRB15G25KT
     FM291200 03005KT P6SM SCT250
     FM291600 11009G19KT P6SM SCT040 SCT250
     FM300200 14006KT P6SM SCT200=

USA.gov is the U.S. government's official web portal to all federal, state and local government web resources and services.